Bridgeport, CT

3:33 PM EDT on May 23, 2018 (GMT -0400)
Sikorsky Memorial

Weather History for KBDR - October, 2012

Change the Weather History Date:

Thursday, October 18, 2012

  Actual Average Record
Temperature  
Mean Temperature 56 °F 54 °F  
Max Temperature 67 °F 63 °F 75 °F (1990)
Min Temperature 45 °F 46 °F 32 °F (1974)
Degree Days  
Heating Degree Days 9 11  
Month to date heating degree days 135 152  
Since 1 July heating degree days 171 220  
Cooling Degree Days 0 0  
Month to date cooling degree days 9 8  
Year to date cooling degree days 1075 824  
Growing Degree Days 6 (Base 50)    
Moisture  
Dew Point 49 °F    
Average Humidity 75    
Maximum Humidity 93    
Minimum Humidity 56    
Precipitation  
Precipitation 0.00 in 0.12 in 1.86 in (1975)
Month to date precipitation 1.86 2.16  
Year to date precipitation 34.07 34.54  
Snow  
Snow 0.00 in 0.00 in T in (2015)
Month to date snowfall 0.0 0.0  
Since 1 July snowfall 0.0 0.0  
Snow Depth 0.00 in    
Sea Level Pressure  
Sea Level Pressure 30.03 in    
Wind  
Wind Speed 7 mph (ENE)    
Max Wind Speed 17 mph    
Max Gust Speed 21 mph    
Visibility 9 miles    
Events      
T = Trace of Precipitation, MM = Missing Value Source: NWS Daily Summary

Daily Weather History Graph

Daily Weather History Graph

Search for Another Location

Airport or City:

Astronomy

Oct. 18, 2012 Rise Set
Actual Time 7:07 AM EDT 6:06 PM EDT
Civil Twilight 6:40 AM EDT 6:34 PM EDT
Nautical Twilight 6:08 AM EDT 7:06 PM EDT
Astronomical Twilight 5:36 AM EDT 7:38 PM EDT
Moon 10:48 AM EDT (10/18) 8:36 PM EDT (10/18)
Length of Visible Light 11h 54m
Length of Day
10h 58m
Waxing Crescent, 14% of the Moon is Illuminated
Oct 18
Waxing Crescent
Oct 21
First Quarter
Oct 29
Full
Nov 6
Last Quarter
Nov 13
New

Hourly Weather History & Observations

Time (EDT) Temp. Windchill Dew Point Humidity Pressure Visibility Wind Dir Wind Speed Gust Speed Precip Events Conditions
12:52 AM 48.9 °F - 46.0 °F 90% 30.00 in 10.0 mi Calm Calm - N/A   Clear
1:52 AM 50.0 °F - 46.9 °F 89% 30.01 in 9.0 mi North 3.5 mph - N/A   Clear
2:52 AM 46.9 °F - 45.0 °F 93% 30.01 in 9.0 mi Calm Calm - N/A   Clear
3:52 AM 46.9 °F - 45.0 °F 93% 30.00 in 8.0 mi Calm Calm - N/A   Clear
4:52 AM 46.0 °F 44.8 °F 44.1 °F 93% 30.01 in 9.0 mi North 3.5 mph - N/A   Clear
5:52 AM 45.0 °F 43.5 °F 43.0 °F 93% 30.04 in 9.0 mi North 3.5 mph - N/A   Clear
6:52 AM 46.0 °F 44.8 °F 43.0 °F 89% 30.04 in 9.0 mi NNE 3.5 mph - N/A   Clear
7:52 AM 46.9 °F - 44.1 °F 90% 30.05 in 7.0 mi North 3.5 mph - N/A   Scattered Clouds
8:00 AM 46.4 °F 45.2 °F 44.6 °F 93% 30.06 in 7.0 mi North 3.5 mph - N/A   Mostly Cloudy
8:43 AM 50.0 °F - 46.4 °F 87% 30.06 in 9.0 mi NNE 3.5 mph - N/A   Scattered Clouds
8:52 AM 51.1 °F - 46.9 °F 86% 30.06 in 9.0 mi North 3.5 mph - N/A   Partly Cloudy
9:52 AM 55.9 °F - 50.0 °F 80% 30.06 in 10.0 mi NE 3.5 mph - N/A   Mostly Cloudy
10:52 AM 60.1 °F - 52.0 °F 75% 30.06 in 10.0 mi Variable 5.8 mph - N/A   Partly Cloudy
11:52 AM 64.0 °F - 51.1 °F 63% 30.06 in 10.0 mi ENE 5.8 mph - N/A   Partly Cloudy
12:52 PM 64.0 °F - 50.0 °F 60% 30.06 in 10.0 mi South 4.6 mph - N/A   Clear
1:52 PM 64.9 °F - 50.0 °F 58% 30.04 in 10.0 mi ESE 10.4 mph - N/A   Clear
2:52 PM 66.0 °F - 50.0 °F 56% 30.03 in 10.0 mi SE 9.2 mph - N/A   Clear
3:52 PM 64.9 °F - 48.9 °F 56% 30.03 in 10.0 mi South 12.7 mph - N/A   Clear
4:52 PM 62.1 °F - 48.9 °F 62% 30.01 in 10.0 mi SE 10.4 mph - N/A   Clear
5:52 PM 61.0 °F - 50.0 °F 67% 30.01 in 10.0 mi SE 9.2 mph - N/A   Clear
6:52 PM 61.0 °F - 53.1 °F 75% 30.02 in 10.0 mi ESE 11.5 mph - N/A   Partly Cloudy
7:52 PM 61.0 °F - 53.1 °F 75% 30.06 in 10.0 mi SE 10.4 mph - N/A   Overcast
8:52 PM 61.0 °F - 54.0 °F 78% 30.04 in 10.0 mi East 8.1 mph - N/A   Mostly Cloudy
9:52 PM 62.1 °F - 55.0 °F 78% 30.03 in 10.0 mi East 11.5 mph - N/A   Overcast
10:24 PM 62.6 °F - 55.4 °F 77% 30.02 in 10.0 mi East 12.7 mph - N/A   Overcast
10:50 PM 62.6 °F - 55.4 °F 77% 30.02 in 10.0 mi East 13.8 mph - N/A   Overcast
10:52 PM 63.0 °F - 55.9 °F 78% 30.01 in 10.0 mi East 13.8 mph - N/A   Overcast
11:52 PM 63.0 °F - 55.9 °F 78% 29.99 in 10.0 mi East 13.8 mph - N/A   Overcast